When you browse on this site, cookies collect data to enhance your experience and personalize the content and advertising you see.
Visit our Privacy Policy to learn more. By continuing to use the site, you agree to this use of cookies and data.
  • In Slovakia
  • List of Countries
  • For 7 days
  • Water Temperature
  • Satellite Maps
  • Weather Map
  • Weather Widgets
  • user-avatar
    Login

    Hourly Weather Stupava

    Today, 18 January, Friday

    Time Temperature Precipitation Wind Pressure Humidity
    00:00 +4°C° 0.2 mm 2 mps 740 mmHg 81%
    01:00 +3°C° 0.2 mm 3 mps 740 mmHg 80%
    02:00 +3°C° 0.1 mm 3 mps 740 mmHg 79%
    03:00 +3°C° 0.1 mm 3 mps 741 mmHg 78%
    04:00 +3°C° 0.1 mm 3 mps 741 mmHg 76%
    05:00 +2°C° 0.1 mm 3 mps 742 mmHg 77%
    06:00 +2°C° 0.1 mm 3 mps 742 mmHg 78%
    07:00 +1°C° 0.1 mm 3 mps 743 mmHg 79%
    08:00 +1°C° 0 mm 3 mps 743 mmHg 75%
    09:00 0°C° 0 mm 4 mps 744 mmHg 70%
    10:00 0°C° 0 mm 5 mps 744 mmHg 66%
    11:00 +1°C° 0 mm 5 mps 745 mmHg 63%
    12:00 +1°C° 0 mm 6 mps 745 mmHg 59%
    13:00 +1°C° 0 mm 6 mps 745 mmHg 56%
    14:00 +1°C° 0 mm 5 mps 746 mmHg 58%
    15:00 +1°C° 0 mm 5 mps 746 mmHg 61%
    16:00 0°C° 0 mm 4 mps 746 mmHg 64%
    17:00 0°C° 0 mm 3 mps 747 mmHg 67%
    18:00 0°C° 0 mm 3 mps 747 mmHg 70%
    19:00 -1°C° 0 mm 3 mps 748 mmHg 74%
    20:00 -2°C° 0 mm 2 mps 748 mmHg 74%
    21:00 -2°C° 0 mm 2 mps 749 mmHg 75%
    22:00 -3°C° 0 mm 2 mps 749 mmHg 76%
    23:00 -3°C° 0 mm 2 mps 749 mmHg 76%

    Tomorrow, 19 January, Saturday

    Time Temperature Precipitation Wind Pressure Humidity
    00:00 -3°C° 0 mm 2 mps 749 mmHg 76%
    01:00 -1°C° 0 mm 1 mps 749 mmHg 76%
    02:00 -1°C° 0 mm 1 mps 749 mmHg 75%
    03:00 -1°C° 0 mm 1 mps 749 mmHg 75%
    04:00 -1°C° 0 mm 1 mps 749 mmHg 75%
    05:00 -1°C° 0 mm 1 mps 749 mmHg 75%
    06:00 -1°C° 0 mm 1 mps 749 mmHg 74%
    07:00 -2°C° 0 mm 1 mps 749 mmHg 74%
    08:00 -1°C° 0 mm 1 mps 749 mmHg 69%
    09:00 -2°C° 0 mm 2 mps 749 mmHg 64%
    10:00 -2°C° 0 mm 2 mps 749 mmHg 59%
    11:00 -1°C° 0 mm 3 mps 749 mmHg 59%
    12:00 0°C° 0 mm 3 mps 748 mmHg 59%
    13:00 0°C° 0 mm 3 mps 748 mmHg 59%
    14:00 0°C° 0 mm 3 mps 748 mmHg 62%
    15:00 0°C° 0 mm 3 mps 747 mmHg 65%
    16:00 -1°C° 0 mm 3 mps 747 mmHg 67%
    17:00 -1°C° 0 mm 3 mps 747 mmHg 69%
    18:00 -1°C° 0 mm 3 mps 747 mmHg 70%
    19:00 -3°C° 0 mm 4 mps 747 mmHg 71%
    20:00 -3°C° 0 mm 4 mps 747 mmHg 73%
    21:00 -3°C° 0 mm 4 mps 747 mmHg 74%
    22:00 -3°C° 0 mm 4 mps 747 mmHg 76%
    23:00 -3°C° 0.2 mm 4 mps 746 mmHg 79%

    Day after tomorrow, 20 January, Sunday

    Time Temperature Precipitation Wind Pressure Humidity
    00:00 -3°C° 0.2 mm 4 mps 746 mmHg 83%
    01:00 -3°C° 0.2 mm 4 mps 745 mmHg 86%
    02:00 -4°C° 0.2 mm 4 mps 745 mmHg 88%
    03:00 -4°C° 0.2 mm 3 mps 745 mmHg 89%
    04:00 -4°C° 0.2 mm 3 mps 744 mmHg 90%
    05:00 -4°C° 0 mm 3 mps 744 mmHg 90%
    06:00 -3°C° 0 mm 2 mps 745 mmHg 90%
    07:00 -3°C° 0 mm 2 mps 745 mmHg 90%
    08:00 0°C° 0 mm 1 mps 745 mmHg 88%
    09:00 0°C° 0 mm 1 mps 745 mmHg 86%
    10:00 0°C° 0 mm 1 mps 745 mmHg 84%
    11:00 +1°C° 0 mm 1 mps 745 mmHg 81%
    12:00 +1°C° 0 mm 1 mps 745 mmHg 78%
    13:00 +2°C° 0 mm 1 mps 745 mmHg 75%
    14:00 +2°C° 0 mm 1 mps 745 mmHg 75%
    15:00 +2°C° 0 mm 1 mps 745 mmHg 76%
    16:00 +1°C° 0 mm 1 mps 745 mmHg 76%
    17:00 +1°C° 0 mm 1 mps 745 mmHg 77%
    18:00 0°C° 0 mm 1 mps 746 mmHg 79%
    19:00 0°C° 0 mm 1 mps 746 mmHg 80%
    20:00 -2°C° 0 mm 2 mps 747 mmHg 81%
    21:00 -3°C° 0 mm 2 mps 747 mmHg 83%
    22:00 -3°C° 0 mm 2 mps 748 mmHg 84%
    23:00 -3°C° 0 mm 2 mps 748 mmHg 84%

    21 January, Monday

    Time Temperature Precipitation Wind Pressure Humidity
    00:00 -4°C° 0 mm 2 mps 748 mmHg 84%
    01:00 -4°C° 0 mm 2 mps 748 mmHg 83%
    02:00 -4°C° 0 mm 2 mps 748 mmHg 82%
    03:00 -4°C° 0 mm 2 mps 749 mmHg 80%
    04:00 -4°C° 0 mm 2 mps 749 mmHg 79%
    05:00 -4°C° 0 mm 2 mps 749 mmHg 77%
    06:00 -4°C° 0 mm 2 mps 749 mmHg 76%
    07:00 -4°C° 0 mm 2 mps 750 mmHg 74%
    08:00 -4°C° 0 mm 2 mps 750 mmHg 70%
    09:00 -3°C° 0 mm 2 mps 751 mmHg 65%
    10:00 -2°C° 0 mm 2 mps 751 mmHg 61%
    11:00 0°C° 0 mm 1 mps 751 mmHg 57%
    12:00 +1°C° 0 mm 1 mps 751 mmHg 54%
    13:00 +2°C° 0 mm 1 mps 751 mmHg 50%
    14:00 +1°C° 0 mm 1 mps 750 mmHg 55%
    15:00 +1°C° 0 mm 1 mps 750 mmHg 60%
    16:00 0°C° 0 mm 1 mps 750 mmHg 65%
    17:00 0°C° 0 mm 1 mps 750 mmHg 70%
    18:00 -1°C° 0 mm 1 mps 750 mmHg 75%
    19:00 -2°C° 0 mm 1 mps 750 mmHg 81%
    20:00 -2°C° 0 mm 1 mps 750 mmHg 84%
    21:00 -2°C° 0 mm 1 mps 750 mmHg 87%
    22:00 -2°C° 0 mm 1 mps 750 mmHg 90%
    23:00 -4°C° 0 mm 2 mps 750 mmHg 91%

    22 January, Tuesday

    Time Temperature Precipitation Wind Pressure Humidity
    00:00 -4°C° 0 mm 2 mps 750 mmHg 91%
    01:00 -4°C° 0 mm 2 mps 749 mmHg 92%
    02:00 -4°C° 0 mm 2 mps 748 mmHg 91%
    03:00 -4°C° 0 mm 2 mps 748 mmHg 89%
    04:00 -5°C° 0 mm 3 mps 747 mmHg 88%
    05:00 -5°C° 0 mm 3 mps 747 mmHg 87%
    06:00 -5°C° 0 mm 3 mps 746 mmHg 85%
    07:00 -5°C° 0 mm 3 mps 746 mmHg 84%
    08:00 -5°C° 0 mm 3 mps 745 mmHg 80%
    09:00 -4°C° 0 mm 4 mps 745 mmHg 76%
    10:00 -4°C° 0 mm 4 mps 744 mmHg 72%
    11:00 -3°C° 0 mm 4 mps 743 mmHg 72%
    12:00 -3°C° 0 mm 4 mps 742 mmHg 72%
    13:00 -3°C° 0 mm 4 mps 741 mmHg 71%
    14:00 -4°C° 0.2 mm 5 mps 740 mmHg 76%
    15:00 -4°C° 0.2 mm 5 mps 739 mmHg 81%
    16:00 -4°C° 0.2 mm 5 mps 738 mmHg 86%
    17:00 -4°C° 0.5 mm 5 mps 737 mmHg 88%
    18:00 -4°C° 0.5 mm 5 mps 737 mmHg 89%
    19:00 -4°C° 0.5 mm 5 mps 736 mmHg 91%
    20:00 -4°C° 0.2 mm 5 mps 735 mmHg 91%
    21:00 -4°C° 0.2 mm 5 mps 735 mmHg 91%
    22:00 -4°C° 0.2 mm 5 mps 734 mmHg 91%
    23:00 -3°C° 0.3 mm 4 mps 733 mmHg 92%

    23 January, Wednesday

    Time Temperature Precipitation Wind Pressure Humidity
    00:00 -3°C° 0.3 mm 4 mps 733 mmHg 92%
    01:00 -2°C° 0.3 mm 3 mps 732 mmHg 93%
    02:00 -2°C° 0.7 mm 3 mps 731 mmHg 94%
    03:00 -2°C° 0.7 mm 3 mps 731 mmHg 95%
    04:00 -2°C° 0.7 mm 2 mps 730 mmHg 96%
    05:00 -2°C° 1 mm 2 mps 730 mmHg 97%
    06:00 0°C° 1 mm 1 mps 730 mmHg 97%
    07:00 0°C° 1 mm 1 mps 729 mmHg 98%
    08:00 0°C° 0.6 mm 1 mps 729 mmHg 97%
    09:00 +1°C° 0.6 mm 1 mps 729 mmHg 97%
    10:00 -1°C° 0.6 mm 2 mps 729 mmHg 97%
    11:00 +1°C° 0.5 mm 1 mps 729 mmHg 97%
    12:00 +1°C° 0.5 mm 1 mps 729 mmHg 98%
    13:00 +1°C° 0.5 mm 1 mps 729 mmHg 98%
    14:00 +1°C° 0.1 mm 1 mps 729 mmHg 97%
    15:00 +1°C° 0.1 mm 1 mps 729 mmHg 97%
    16:00 0°C° 0.1 mm 0 mps 729 mmHg 96%
    17:00 0°C° 0 mm 1 mps 729 mmHg 96%
    18:00 -2°C° 0 mm 2 mps 729 mmHg 96%
    19:00 -3°C° 0 mm 2 mps 729 mmHg 96%
    20:00 -2°C° 0 mm 2 mps 729 mmHg 96%
    21:00 -1°C° 0 mm 3 mps 729 mmHg 96%
    22:00 0°C° 0 mm 3 mps 729 mmHg 96%
    23:00 0°C° 0.3 mm 3 mps 728 mmHg 96%
    Show more